METEOR 2-11 DEB, 42455

Orbit data source: Space-Track

METEOR 2-11 DEB, 42455 is space debris in LEO originally from a launch on Thu, 05 Jul 1984 UTC launched from the Plesetsk Missile And Space Complex (PKMTR). Debris objects in space refer to the collection of defunct objects orbiting the Earth. Examples of debris include non-operational satellites, rocket bodies, and fragments generated from explosions, collisions, or faulty payload assembly.

Loading next visibility...
Identifier
42455, 1984-072R
Orbit
LEO
Country
Flag of CISCIS
Related business
Manufacturer
Unknown
Mission
Spacecraft
Bus & Motor
Unknown
Mass
Unknown
Launch date (UTC)
1984-07-05 (42 years ago)
Launch vehicle
Unknown
Launch site
Plesetsk Missile And Space Complex (PKMTR)
Object type
Payload
Rocket body
Debris
Shape & HBR
Unknown shape, 0.1 m
Radar Cross Section
Small (<0.1 m²)

Expand to show TLE details & history
Last TLE update: 14 hours ago

TLE from 14 hours ago
0 METEOR 2-11 DEB
1 42455U 84072R   26209.10139782  .00000781  00000-0  55423-3 0  9999
2 42455  82.5273 343.7971 0005317 207.9856 152.1026 13.96534854565670
Epoch: 2026-07-28T02:26Z
TLE epoch observation values (Epoch: 2026-07-28T02:26:00.771Z)
Latitude
-0.00002°
Longitude
1.51843°
Altitude
912.162 km
Speed
7.394 km/s
True Right ascension
22h 55m 11s
True Declination
0° 00' 00"
Sunlit
Object was in full shadow at epoch
Visualization orbit readout
Latitude
Unknown
Longitude
Unknown
Altitude
Unknown
Speed
Unknown
Apparent Right ascension
Unknown
Apparent Declination
Unknown
Sunlit
N/A
Visualization observer readout
Local Sidereal Time
05:28:17
Azimuth
Unknown
Elevation
Unknown
Doppler factor
Unknown
Orbital elements
Apogee altitude
906.826 km
Perigee altitude
899.083 km
Semi-major axis
7,281.092 km
Eccentricity
0.00053
Inclination
82.5273°
RAAN
343.7971°
Arg. of periapsis
207.9856°
True anomaly
152.13109°
Mean anomaly
152.1026°
Eccentric anomaly
152.11685°
Mean motion
3.4934 °/min
Orbital period
103.05 mins
BSTAR
0.00055423
Loading maneuver chart data...
Computing Atmospheric mass density...
Loading historical data...
Loading historical data...
Loading historical data...
Loading historical data...
Loading historical data...
Loading historical data...
Loading historical data...

Documentation

Showing up to 5 results
|